Regional Weather Roundup
Issued by NWS Portland, ME

Current Version | Previous Version | Graphics & Text | Print | Product List | Glossary On
Versions: 1 2 3 4 5 6 7 8 9 10 11 12 13 14 15 16 17 18 19 20 21 22 23 24 25 26 27 28 29 30 31 32 33 34 35 36 37 38 39 40 41 42 43 44 45 46 47 48 49 50
934
ASUS41 KGYX 151610
RWRGYX
WEATHER ROUNDUP FOR MAINE AND NEW HAMPSHIRE
NATIONAL WEATHER SERVICE GRAY ME
1200 PM EDT SUN SEP 15 2019

MEZ002-005-006-010-012-015-018-020-021-024-026-027-029-151700-
MAINE

CITY           SKY/WX    TMP DP  RH WIND       PRES   REMARKS
PORTLAND       FAIR      73  52  47 W9G20     30.05F
SANFORD        FAIR      73  52  47 W15       30.08F
BAR HARBOR     FAIR      71  51  49 NW8       30.02F
WISCASSET      FAIR      71  51  49 VRB7      30.05F
ROCKLAND       FAIR      71  54  54 W12       30.02F
FRYEBURG       FAIR      72  52  49 VRB5      30.05F
LEWISTONAUBURN FAIR      70  53  54 VRB6      30.05F
AUGUSTA        FAIR      72  49  44 W8        30.04F
WATERVILLE     FAIR      70  50  49 VRB7      30.01F
BANGOR         PTSUNNY   70  51  51 W10G20    30.02F
GREENVILLE       N/A     60  47  61 NW13G22   30.00F
MILLINOCKET    CLOUDY    65  48  54 W9G17     30.00F
HOULTON        FAIR      66  50  56 W13       29.94F
PRESQUE ISLE   CLOUDY    63  51  65 W10G17    29.94F
FRENCHVILLE    PTSUNNY   65  52  62 SW12      29.90F
CARIBOU        PTSUNNY   66  50  56 W8G17     29.92F
$$

NHZ002-005-008-009-011-012-014-151700-
NEW HAMPSHIRE

CITY           SKY/WX    TMP DP  RH WIND       PRES   REMARKS
PORTSMOUTH     MOSUNNY   73  54  50 W9        30.06F
ROCHESTER      FAIR      73  52  47 VRB7      30.07F
NASHUA         FAIR      74  54  49 W8        30.10F
MANCHESTER     FAIR      75  50  41 W8        30.08F
CONCORD        FAIR      74  52  46 NW7       30.10F
LACONIA        PTSUNNY   71  54  54 W9        30.09F
PLYMOUTH       FAIR      69  50  49 W9        30.08F
BERLIN         FAIR      67  44  43 W8G20     30.07F
WHITEFIELD     FAIR      66  46  48 W10G18    30.08F
JAFFREY        FAIR      70  49  47 VRB7      30.14F
KEENE          PTSUNNY   71  54  54 SW8G16    30.12F
LEBANON        FAIR      72  51  47 W8        30.09F
MT WASHINGTON  NOT AVBL
$$

VTZ005-007-008-151700-
VERMONT

CITY           SKY/WX    TMP DP  RH WIND       PRES   REMARKS
ST JOHNSBURY     N/A     67  45  45 MISG      30.07F
MONTPELIER     PTSUNNY   65  49  56 VRB6      30.14F
BURLINGTON     PTSUNNY   69  47  45 VRB7      30.09F
$$

MAZ007-012-024-CTZ003-RIZ002-NYZ038-NYZ072-151700-
SOUTHERN NEW ENGLAND AND NY

CITY           SKY/WX    TMP DP  RH WIND       PRES   REMARKS
BOSTON         FAIR      78  52  40 W6        30.10F
WORCESTER      FAIR      69  55  60 W9        30.15S
NANTUCKET      PTSUNNY   73  69  87 SW9       30.12F
PROVIDENCE     FAIR      76  57  51 VRB7      30.13F
HARTFORD       FAIR      73  55  53 W6        30.13F
ALBANY         PTSUNNY   72  55  55 W5        30.15F
NEW YORK CITY  PTSUNNY   77  60  55 VRB5      30.14F
$$

ANZ081-ANZ082-ANZ150-NHZ014-MEZ023>029-151700-
COASTAL MARINE OBSERVATIONS

STATION/POSITION TIME  TEMP    WIND        PRES    WAVE
                       AIR SEA DIR/SP/G            HT/PER
                 (UTC) (F)     (DEG/KT/KT) (MB)    (FT/S)
MOUNT DESERT ROC 1600          220/ 14/ 15 1016.7F
MATINICUS ROCK   1550   58                 1017.0F
ISLE OF SHOALS   1500   67     270/ 10/ 11 1018.5F
JEFFREYS LEDGE   1538      63                N/A     2/ 6
CASHES LEDGE BUO 1550   61 58  260/  8/ 10 1018.4F   3/ 4
GEORGES BANK BUO 1550   63 60              1020.9F   4/ 9
$$

.............KEY..............
   WCI - WIND CHILL
   TC  - TEMPERATURE IN CELSIUS
   VSB - VISIBILITY IN MILES
   HX  - HEAT INDEX
   FAIR- INDICATES FEW OR NO CLOUDS BELOW 12,000 FT, WITH NO
         SIGNIFICANT WEATHER AND/OR OBSTRUCTIONS TO VISIBILITY.






USA.gov is the U.S. government's official web portal to all federal, state and local government web resources and services.